Helicity
41 46 49 61 71 72 76 83 95 106 121 119 104 101 83 62 59 -11 50 17 -10 -4 12 28 20 12 14 42 21 -12 -39 -28 -13 -48 -7 119 62 79 41 129 70 108 143 122 147
48 49 51 56 64 76 77 79 89 99 113 122 115 104 88 58 -45 40 145 95 37 17 7 -18 34 4 -3 -42 -41 -6 -64 1 12 -14 39 62 124 79 72 100 73 102 230 308 236
58 59 61 57 63 68 79 82 81 94 106 109 113 109 91 48 7 11 57 74 66 7 6 -29 5 15 5 -15 -23 -53 -52 -25 -29 36 40 100 94 65 152 78 127 245 302 312 245
63 71 70 68 67 77 87 93 97 94 94 102 109 110 121 2 46 39 77 88 15 21 11 -15 -6 25 24 -7 -14 -87 -66 -57 1 -20 65 101 123 75 69 61 154 195 279 338 270
70 70 71 78 79 78 91 106 115 103 93 86 90 91 37 11 13 85 93 66 8 -9 -6 -17 -8 7 9 12 -22 -31 -82 -65 16 43 132 150 127 64 46 158 210 154 242 273 277
64 73 72 72 79 85 86 97 111 110 96 79 64 66 27 -23 55 59 63 78 49 -58 -18 -34 -26 -16 47 16 -6 -22 14 -32 21 116 133 182 138 54 100 228 233 196 187 206 247
62 67 73 74 74 82 99 104 107 103 82 48 36 23 42 62 61 121 86 53 32 12 -14 22 10 7 44 118 -1 115 -20 28 35 102 89 251 84 79 204 275 222 221 133 127 135
70 68 73 74 79 83 97 123 123 72 39 13 11 11 33 55 51 43 37 31 35 61 74 78 49 18 -30 81 81 20 45 51 40 85 82 107 115 100 231 316 200 162 120 67 131
62 75 79 83 71 80 100 154 106 30 -2 4 25 22 74 61 35 37 62 55 57 29 56 87 23 -24 -7 31 90 99 -11 -21 -4 81 112 127 95 159 193 255 212 184 138 111 54
60 70 84 87 84 89 112 129 20 40 28 15 36 59 58 107 111 62 45 65 86 74 120 54 44 13 32 96 20 -27 -48 -57 -61 -12 113 179 135 208 226 221 213 179 272 260 193
56 65 79 96 99 85 65 56 65 57 66 36 20 49 69 141 122 112 64 97 117 113 86 179 116 -13 -10 -42 -94 -51 -16 -32 61 87 123 163 132 183 228 222 211 162 353 394 312
59 68 76 97 112 115 45 87 87 60 34 34 39 24 24 40 115 138 100 132 126 85 114 111 18 -49 -74 -50 -43 -9 -21 11 -6 28 70 66 72 82 206 200 124 242 399 464 287
58 64 85 108 173 43 76 109 101 68 10 11 59 46 43 42 52 97 111 146 116 100 80 70 20 2 -71 -64 -26 -38 0 82 75 21 121 65 41 50 78 81 95 103 245 366 365
56 60 76 138 58 81 102 104 124 32 48 23 50 43 95 89 77 65 81 143 163 57 67 30 -63 -7 -90 -66 -32 -4 18 83 -16 119 91 47 41 31 -24 45 107 80 169 181 280
52 56 58 34 39 71 91 147 89 47 91 24 17 77 99 156 69 100 71 167 126 120 127 29 63 25 7 34 30 -8 60 59 37 90 91 72 70 26 128 74 31 49 95 114 202
71 49 19 14 31 58 132 141 53 145 99 82 9 30 96 172 99 80 142 148 80 105 76 1 51 54 33 4 62 87 30 57 63 60 62 30 46 5 141 32 6 26 102 88 113
82 38 22 18 31 53 165 102 161 152 61 64 35 18 50 138 107 110 111 133 134 165 57 56 20 69 28 26 41 45 61 67 54 101 10 22 31 105 46 -9 10 30 82 83 122
93 63 14 44 5 49 105 168 131 40 -7 76 23 10 67 57 128 35 74 101 123 132 85 100 106 7 67 35 35 53 65 66 15 18 9 29 -6 46 30 26 0 13 76 102 132
67 24 26 7 -17 53 128 153 41 13 95 103 129 17 45 53 72 119 53 49 70 93 130 112 69 138 97 99 71 62 45 46 109 87 65 26 16 4 4 62 37 -5 14 48 88
30 38 27 20 22 59 120 50 -4 -10 57 116 127 92 45 13 53 67 69 39 57 78 143 92 34 82 104 26 50 48 58 97 112 76 23 61 72 9 34 40 -2 -3 44 47 84
28 62 18 -10 4 82 56 21 -6 -23 -22 61 137 188 121 54 53 66 44 58 67 94 128 104 57 138 132 89 48 76 90 116 81 98 69 44 11 33 52 38 12 -15 14 75 158
35 76 22 3 74 63 50 31 21 108 57 36 86 84 140 118 86 40 30 25 38 131 113 97 46 23 99 103 64 35 37 64 124 115 117 70 -33 41 58 47 5 -24 -47 2 131
40 35 43 35 37 31 55 33 67 219 139 17 101 92 102 99 107 69 70 41 35 108 116 151 72 41 115 83 66 40 3 48 102 115 93 93 -9 90 54 15 -28 -48 -74 159 243
48 44 35 29 36 39 61 53 45 111 212 46 47 87 77 107 38 69 7 64 -8 78 119 203 131 56 61 57 93 65 39 79 78 66 82 81 92 74 18 58 -19 46 67 154 234
53 58 42 43 9 29 64 67 92 176 123 82 45 60 99 45 144 54 91 101 67 58 151 215 97 93 65 56 47 74 86 65 56 31 85 -8 127 90 26 61 77 78 80 164 177
46 62 46 20 5 15 9 22 89 115 112 105 71 115 185 15 103 94 69 110 76 52 40 223 97 91 72 61 45 52 51 81 64 59 76 71 6 80 38 119 161 172 173 120 153
44 44 50 43 44 16 -20 -44 50 61 82 89 176 152 68 30 -41 -18 0 81 178 90 20 110 194 144 124 115 89 99 29 55 60 36 40 50 20 40 48 78 62 156 172 96 69
Wind_Speed
50 51 50 51 50 49 49 47 46 46 46 47 47 48 48 49 49 35 46 17 18 18 27 35 31 33 29 24 22 28 30 31 35 35 35 40 38 37 34 37 28 31 31 34 44
51 51 51 52 52 52 51 50 49 48 48 48 47 47 48 48 44 50 52 51 17 20 26 31 34 35 29 26 29 24 27 28 33 30 33 35 37 35 37 35 39 34 35 40 41
53 53 53 53 53 53 53 52 51 51 50 49 48 47 47 45 40 34 35 45 41 12 21 29 34 32 28 23 25 27 26 24 23 37 31 33 31 32 34 32 30 35 40 42 39
54 55 55 55 55 55 55 55 54 53 52 51 49 47 47 35 28 30 31 27 13 6 16 24 26 31 31 22 24 24 23 19 24 29 27 24 29 29 29 33 33 34 39 43 41
56 56 56 56 57 57 57 57 57 56 54 52 49 46 37 35 42 39 34 26 19 17 18 17 24 26 27 29 35 12 14 21 27 19 19 21 24 32 31 33 35 35 33 40 43
57 57 57 57 58 59 59 60 59 58 56 53 49 46 36 44 41 44 37 33 27 24 24 17 18 23 33 26 33 29 22 15 19 17 19 20 24 32 34 31 32 31 32 35 36
58 58 58 58 59 60 62 63 62 61 57 52 47 41 42 49 26 44 50 43 31 29 29 26 24 28 40 39 30 42 14 14 15 16 20 21 28 24 26 26 28 26 25 27 25
58 58 58 58 60 61 64 65 65 61 54 47 42 40 49 41 46 59 53 56 50 53 45 47 31 31 25 39 39 33 18 14 13 12 20 20 22 13 21 22 22 20 18 20 20
58 58 59 60 61 62 63 66 64 49 41 36 40 42 54 49 49 55 43 51 48 43 43 44 30 25 27 31 32 30 21 21 25 10 19 7 32 18 22 18 16 20 21 17 14
57 59 60 60 62 64 65 61 48 41 36 39 45 49 49 39 38 37 30 39 46 43 42 27 25 22 26 29 22 23 30 39 43 40 6 17 11 16 21 23 20 19 18 16 15
59 61 61 62 62 63 59 43 40 40 42 49 43 51 50 45 43 34 32 29 37 38 38 30 24 17 10 16 19 33 40 48 52 50 8 12 9 10 21 27 19 24 17 20 20
60 62 62 63 64 63 40 37 35 39 57 58 71 72 71 53 51 43 27 31 32 38 35 34 25 19 21 29 35 38 46 49 53 55 14 19 27 20 11 24 26 21 18 21 19
61 62 62 64 65 37 37 31 44 52 50 60 54 59 59 41 52 56 32 32 37 33 34 28 35 24 31 44 42 46 46 52 52 24 23 25 33 36 17 19 15 22 20 21 28
61 61 61 65 38 45 34 35 56 29 52 52 46 55 47 43 55 48 34 34 42 39 33 40 46 30 34 47 29 52 40 49 45 15 19 30 34 35 13 17 26 23 22 23 26
61 61 60 56 53 38 34 54 42 28 52 40 38 38 37 48 39 49 37 44 42 40 35 31 27 34 48 70 26 49 45 51 34 22 22 37 41 29 23 9 27 35 29 27 28
62 63 60 45 35 33 49 46 25 32 45 45 36 37 42 54 47 38 42 42 47 50 48 52 38 32 42 60 54 60 54 42 30 26 31 34 33 37 20 17 20 32 26 28 25
63 62 50 38 33 29 45 27 32 30 37 40 39 39 48 56 62 43 49 51 50 53 59 54 66 61 47 57 46 40 41 38 30 28 33 30 32 16 21 20 24 23 30 29 24
61 58 37 15 29 34 27 24 33 32 35 43 47 41 39 48 61 63 58 62 58 49 45 49 51 53 38 31 42 46 28 26 32 30 38 35 15 16 27 21 16 23 22 22 24
52 35 33 29 11 26 18 24 24 23 30 45 40 31 37 44 49 65 67 74 64 64 51 44 52 46 42 44 40 45 42 32 33 39 36 42 38 34 20 31 12 15 16 27 24
41 35 33 25 21 19 21 26 30 29 38 40 34 33 39 44 51 53 64 62 71 67 62 45 49 47 43 41 46 49 33 39 42 38 56 47 47 20 15 9 13 15 18 25 22
36 29 34 23 20 25 20 32 37 49 48 38 43 51 44 44 49 65 62 68 63 62 64 58 48 46 46 43 45 43 44 36 30 34 41 47 43 8 10 11 15 20 20 18 17
33 30 23 19 27 29 25 27 34 49 55 52 42 48 45 47 51 58 75 69 53 54 64 59 49 70 71 62 54 50 55 42 31 37 40 44 65 22 9 11 13 17 17 18 15
34 32 19 28 27 27 34 43 47 49 41 32 36 49 48 49 46 49 53 77 83 60 64 50 62 63 58 55 44 49 43 39 36 38 40 41 37 36 13 5 9 14 14 14 12
32 29 27 16 18 22 40 39 30 37 52 37 45 48 47 47 42 46 50 55 68 75 60 42 57 59 64 46 35 40 44 38 42 52 42 24 36 24 7 7 5 2 5 6 10
30 31 28 24 12 9 31 37 42 43 39 41 37 43 46 46 45 41 46 45 47 56 54 54 66 63 67 56 48 47 43 36 39 47 39 24 21 18 12 12 12 5 3 3 6
32 34 33 27 19 14 19 26 42 40 42 45 44 52 51 49 40 45 42 34 35 46 54 60 67 60 74 55 50 47 45 44 45 45 53 47 41 21 21 23 12 6 5 4 10
28 28 25 24 20 16 18 17 38 46 44 44 53 53 49 49 45 42 39 44 43 42 48 54 56 52 59 47 46 61 49 44 39 42 46 47 54 53 35 16 17 14 12 11 18
Wind_Direction
316 314 312 310 307 306 304 300 296 290 286 282 278 276 279 280 278 293 262 258 329 318 303 269 276 281 351 354 7 51 62 78 98 69 57 86 68 85 61 81 114 107 63 98 113
312 310 309 308 308 305 303 301 296 292 286 282 276 276 278 285 284 260 236 224 140 309 305 303 290 302 359 21 20 28 57 86 113 52 68 76 69 69 61 87 38 42 50 98 110
310 309 308 307 305 304 302 300 298 292 288 283 277 275 276 282 286 284 279 252 243 303 307 311 295 319 340 10 20 22 41 50 51 140 64 78 60 60 65 70 74 71 88 108 115
308 307 306 305 305 302 299 297 295 294 290 284 278 275 272 294 292 285 284 294 304 311 310 320 322 322 329 358 353 352 353 38 15 298 85 84 53 47 78 39 78 84 101 111 120
309 306 305 303 303 302 299 296 293 290 289 286 281 279 295 291 269 265 277 295 293 287 297 323 329 334 336 338 323 53 54 353 340 360 48 49 34 28 29 42 66 78 91 112 125
311 307 304 302 301 299 298 295 291 288 285 284 285 280 293 279 271 265 270 274 284 278 284 313 338 341 310 350 322 343 155 31 17 58 53 38 19 2 31 49 56 74 95 114 121
311 308 304 300 300 298 296 294 290 286 283 283 285 289 286 272 298 256 246 255 279 271 278 295 309 322 298 293 344 263 24 10 58 71 11 46 2 21 40 61 61 65 101 112 117
309 304 301 298 297 295 294 291 288 285 284 287 287 288 277 284 267 245 250 241 252 244 263 262 292 308 333 299 294 317 357 14 33 26 358 4 13 71 65 66 61 77 87 118 121
303 299 298 296 297 295 291 288 287 292 293 295 288 284 273 271 268 250 257 250 258 264 266 267 290 305 319 313 309 320 336 338 320 99 353 74 346 54 115 83 92 96 111 121 123
298 299 297 295 296 297 294 285 298 302 300 292 282 277 273 275 283 272 268 261 259 266 266 281 286 291 302 304 318 324 317 298 300 295 111 159 2 71 126 149 139 110 92 94 128
299 300 298 296 295 298 304 317 315 307 292 275 277 267 268 278 281 273 265 270 266 267 263 274 268 240 258 320 326 307 301 290 265 277 37 143 25 56 148 168 141 155 120 128 138
302 302 299 297 295 291 325 321 323 318 290 280 266 264 261 273 266 265 269 259 261 258 263 269 256 239 272 290 291 295 284 265 270 274 333 355 347 24 128 176 173 160 145 153 147
303 303 301 298 290 326 324 332 311 306 299 286 278 269 263 265 259 253 257 251 258 257 257 255 280 259 264 269 276 278 283 266 269 341 348 350 335 337 48 168 154 157 154 161 182
303 302 302 302 320 305 321 328 299 330 298 293 286 271 259 257 260 255 255 243 257 255 260 266 264 265 262 262 284 267 280 280 292 347 352 334 342 344 128 167 173 159 153 168 190
302 301 298 308 292 306 319 301 308 339 291 310 300 296 264 244 266 248 252 246 249 257 254 263 270 256 255 224 279 263 291 292 310 330 346 325 336 5 18 160 179 183 178 183 186
294 294 299 316 319 311 297 302 341 322 295 306 307 287 260 246 251 258 246 250 252 253 257 256 269 265 250 245 257 259 282 296 311 319 322 334 352 355 35 88 129 168 172 178 173
290 292 308 320 319 320 302 324 314 309 314 310 300 293 262 246 238 254 240 241 241 244 248 255 249 251 258 257 266 282 289 291 299 307 311 341 352 45 45 54 110 131 177 174 169
289 286 325 351 332 311 320 315 307 314 299 309 301 286 269 248 243 243 244 241 242 246 252 250 255 249 253 256 265 269 285 292 295 297 298 312 76 74 48 60 145 154 165 159 167
296 344 345 343 114 326 326 306 306 312 312 303 298 292 274 258 250 241 242 239 243 239 246 250 255 255 253 253 263 267 275 286 293 292 298 298 225 223 33 12 80 128 124 162 170
334 341 351 17 83 356 322 301 285 287 300 302 289 295 286 269 250 243 238 243 242 240 240 257 256 255 257 259 259 262 278 277 282 287 257 283 283 173 51 206 8 77 119 160 166
342 347 346 53 23 335 327 295 287 272 285 293 285 280 278 274 264 243 242 242 239 240 238 245 255 252 258 257 258 266 267 281 290 288 285 286 295 103 153 110 136 157 157 142 152
345 347 12 44 341 325 333 318 297 280 274 276 284 267 271 283 269 250 239 240 244 241 237 242 255 246 246 251 266 268 267 270 283 281 288 293 250 342 45 78 111 144 149 141 129
344 346 28 347 343 335 322 307 293 279 277 279 281 269 273 275 272 260 251 241 236 243 239 238 244 247 253 257 270 268 271 272 283 294 283 291 228 310 347 94 122 155 136 85 75
347 357 5 22 13 359 322 318 310 284 272 271 277 269 269 271 278 263 272 253 237 236 240 237 243 244 245 254 271 272 271 273 277 279 290 297 308 315 224 199 169 42 123 57 97
356 348 1 7 39 77 331 312 291 276 269 271 276 286 267 266 272 274 281 262 243 243 241 238 244 246 249 257 266 272 275 280 281 286 285 240 301 315 227 216 219 334 335 89 104
4 344 349 7 23 36 10 328 283 280 277 267 273 283 259 260 271 274 280 267 249 251 244 244 244 248 248 258 263 270 275 281 285 293 297 290 293 311 307 296 292 239 355 180 174
42 20 13 13 25 32 7 11 289 281 267 274 276 283 269 256 259 269 276 262 260 260 253 244 241 244 249 257 264 265 274 279 291 301 301 300 291 296 314 279 240 228 223 200 182